Columbia, SC

4:19 PM EDT on July 27, 2017 (GMT -0400)
Columbia Metro

Weather History for KCAE - May, 2013

Change the Weather History Date:

Wednesday, May 15, 2013

  Actual Average Record
Temperature  
Mean Temperature 76 °F 71 °F  
Max Temperature 93 °F 84 °F 96 °F (1962)
Min Temperature 58 °F 59 °F 44 °F (1895)
Degree Days  
Heating Degree Days 0 1  
Month to date heating degree days 18 17  
Since 1 July heating degree days 2259 2548  
Cooling Degree Days 11 7  
Month to date cooling degree days 49 81  
Year to date cooling degree days 177 176  
Growing Degree Days 25 (Base 50)    
Moisture  
Dew Point 52 °F    
Average Humidity 46    
Maximum Humidity 62    
Minimum Humidity 30    
Precipitation  
Precipitation 0.00 in 0.09 in 1.90 in (2014)
Month to date precipitation 2.31 1.37  
Year to date precipitation 17.31 14.91  
Sea Level Pressure  
Sea Level Pressure 30.05 in    
Wind  
Wind Speed 7 mph (WSW)    
Max Wind Speed 16 mph    
Max Gust Speed 23 mph    
Visibility 10 miles    
Events      
T = Trace of Precipitation, MM = Missing Value Source: NWS Daily Summary

Daily Weather History Graph

Daily Weather History Graph

Search for Another Location

Airport or City:

Trip Planner

Search our weather history database for the weather conditions in past years. The results will help you decide how hot, cold, wet, or windy it might be!

Date:

Astronomy

May. 15, 2013 Rise Set
Actual Time 6:23 AM EDT 8:19 PM EDT
Civil Twilight 5:55 AM EDT 8:46 PM EDT
Nautical Twilight 5:21 AM EDT 9:20 PM EDT
Astronomical Twilight 4:46 AM EDT 9:56 PM EDT
Moon 10:54 AM EDT (5/15) 12:06 AM EDT (5/15)
Length of Visible Light 14h 51m
Length of Day
13h 56m
Waxing Crescent, 26% of the Moon is Illuminated
May 15
Waxing Crescent
May 18
First Quarter
May 25
Full
May 31
Last Quarter
Jun 8
New

Hourly Weather History & Observations

Time (EDT) Temp. Heat Index Dew Point Humidity Pressure Visibility Wind Dir Wind Speed Gust Speed Precip Events Conditions
12:56 AM 64.0 °F - 42.1 °F 45% 30.12 in 10.0 mi Calm Calm - N/A   Clear
1:56 AM 62.1 °F - 42.1 °F 48% 30.11 in 10.0 mi SW 4.6 mph - N/A   Clear
2:56 AM 60.1 °F - 43.0 °F 53% 30.10 in 10.0 mi WSW 4.6 mph - N/A   Clear
3:56 AM 59.0 °F - 43.0 °F 55% 30.10 in 10.0 mi WSW 5.8 mph - N/A   Clear
4:56 AM 57.9 °F - 44.1 °F 60% 30.10 in 10.0 mi WSW 4.6 mph - N/A   Clear
5:56 AM 59.0 °F - 45.0 °F 60% 30.11 in 10.0 mi WSW 5.8 mph - N/A   Clear
6:56 AM 62.1 °F - 46.0 °F 56% 30.12 in 10.0 mi WSW 9.2 mph - N/A   Partly Cloudy
7:56 AM 64.9 °F - 48.0 °F 54% 30.13 in 10.0 mi WSW 8.1 mph - N/A   Partly Cloudy
8:56 AM 70.0 °F - 50.0 °F 49% 30.13 in 10.0 mi WSW 9.2 mph - N/A   Partly Cloudy
9:56 AM 73.9 °F - 53.1 °F 48% 30.12 in 10.0 mi WSW 11.5 mph 18.4 mph N/A   Partly Cloudy
10:56 AM 80.1 °F 80.2 °F 55.9 °F 43% 30.10 in 10.0 mi SW 10.4 mph - N/A   Clear
11:56 AM 84.0 °F 83.0 °F 55.9 °F 38% 30.09 in 10.0 mi West 10.4 mph - N/A   Partly Cloudy
12:56 PM 87.1 °F 85.9 °F 57.0 °F 36% 30.06 in 10.0 mi West 9.2 mph - N/A   Partly Cloudy
1:56 PM 88.0 °F 86.7 °F 57.0 °F 35% 30.04 in 10.0 mi Variable 6.9 mph - N/A   Clear
2:56 PM 91.0 °F 89.2 °F 55.9 °F 30% 30.01 in 10.0 mi WSW 8.1 mph 23.0 mph N/A   Partly Cloudy
3:56 PM 91.9 °F 90.0 °F 55.0 °F 29% 29.99 in 10.0 mi SW 5.8 mph 16.1 mph N/A   Partly Cloudy
4:56 PM 91.9 °F 90.0 °F 55.0 °F 29% 29.97 in 10.0 mi West 6.9 mph - N/A   Partly Cloudy
5:56 PM 91.9 °F 90.6 °F 57.0 °F 31% 29.96 in 10.0 mi WSW 10.4 mph - N/A   Partly Cloudy
6:56 PM 90.0 °F 88.6 °F 57.0 °F 33% 29.96 in 10.0 mi WSW 10.4 mph - N/A   Clear
7:56 PM 86.0 °F 84.9 °F 57.0 °F 37% 29.96 in 10.0 mi WSW 6.9 mph - N/A   Clear
8:56 PM 81.0 °F 81.1 °F 57.9 °F 45% 29.97 in 10.0 mi SW 5.8 mph - N/A   Partly Cloudy
9:56 PM 77.0 °F - 57.9 °F 52% 29.99 in 10.0 mi Calm Calm - N/A   Clear
10:56 PM 75.0 °F - 57.9 °F 55% 29.99 in 10.0 mi WSW 5.8 mph - N/A   Clear
11:56 PM 75.0 °F - 57.0 °F 53% 29.99 in 10.0 mi WSW 8.1 mph - N/A   Clear